Вернуться в каталог

INTELSAT 5

PAS 5

АктивенСвязьGEO
NORAD 24916·PAYLOAD·🇺🇸 United States

Запущен Aug 28, 1997 с Baikonur Cosmodrome

Loading…

TLE

СвежийSource: Space-Track

Эпоха: Sep 14, 2026, 13:30 UTC

1 24916U 97046A   26257.56316057  .00000055  00000-0  00000-0 0  9993
2 24916  10.5892  48.3376 0005863 184.6286 196.3735  0.99034536106434

Отслеживайте INTELSAT 5 в реальном времени с AllMySat

Download on the App Store